x

8638863 - Chesapeake Bay Bridge Tunnel, Va (cbbv2) Weather Station

5:54am - Thu 26th May 2016 All times are EDT. -4 hours from GMT.

  • Wind
    9mph, 11mph gusts
  • Sea Temp 66°f
  • Air Temp 69°f
  • Sea Pressure 1021.2mb
  • 8638863 - Chesapeake Bay Bridge Tunnel, Va
  • 8638863 - Chesapeake Bay Bridge Tunnel, Va

More Historic Weather Station data

Upgrade to MSW Pro to gain access to the past 30 days of data for over 8000 Wavebouys and Weather Stations around the globe.

Join Pro

Comparision Forecast

View Surf forecast
   
Thu 05/26 5:54am 9 11 mph 1021.2mb 66f 69f
5:48am 10 13 mph 1021.1mb 66f 69f
5:42am 11 13 mph 1021mb 66f 69f
5:36am 11 13 mph 1021mb 66f 69f
5:30am 13 14 mph 1020.9mb 66f 69f
5:24am 13 14 mph 1020.8mb 66f 69f
5:18am 14 15 mph 1020.7mb 66f 69f
5:12am 11 13 mph 1020.6mb 66f 69f
5:06am 13 15 mph 1020.6mb 66f 69f
5:00am 13 14 mph 1020.6mb 66f 69f
4:54am 11 15 mph 1020.6mb 66f 69f
4:48am 13 14 mph 1020.6mb 66f 69f
4:42am 11 14 mph 1020.6mb 66f 69f
4:36am 13 14 mph 1020.6mb 66f 70f
4:30am 13 15 mph 1020.5mb 65f 70f
4:24am 11 15 mph 1020.6mb 64f 70f
4:18am 11 14 mph 1020.6mb 64f 70f
4:12am 13 14 mph 1020.5mb 64f 70f
4:06am 13 14 mph 1020.4mb 64f 70f
4:00am 13 14 mph 1020.3mb 64f 70f
3:54am 13 15 mph 1020.3mb 63f 70f
3:48am 14 15 mph 1020.3mb 63f 70f
3:42am 13 15 mph 1020.3mb 62f 70f
3:36am 14 15 mph 1020.4mb 63f 70f
3:30am 14 15 mph 1020.4mb 63f 70f
3:24am 14 16 mph 1020.4mb 63f 71f
3:18am 15 16 mph 1020.4mb 62f 71f
3:12am 15 16 mph 1020.4mb 63f 71f
3:06am 14 16 mph 1020.4mb 62f 71f
3:00am 14 17 mph 1020.4mb 63f 71f
2:54am 14 17 mph 1020.4mb 63f 71f
2:48am 15 17 mph 1020.5mb 63f 71f
2:42am 15 17 mph 1020.5mb 63f 71f
2:36am 16 18 mph 1020.4mb 63f 72f
2:30am 16 18 mph 1020.5mb 63f 72f
2:24am 17 18 mph 1020.5mb 63f 72f
2:18am 16 18 mph 1020.6mb 63f 72f
2:06am 16 18 mph 1020.6mb 62f 72f
2:00am 17 18 mph 1020.6mb 62f 72f
1:54am 16 20 mph 1020.6mb 62f 72f
1:48am 17 18 mph 1020.6mb 62f 72f
1:42am 17 20 mph 1020.6mb 62f 73f
1:30am 17 18 mph 1020.7mb 62f 73f
1:24am 16 20 mph 1020.7mb 62f 73f
1:18am 16 17 mph 1020.7mb 62f 73f
1:12am 16 18 mph 1020.7mb 62f 73f
1:06am 16 18 mph 1020.7mb 62f 73f
1:00am 15 18 mph 1020.8mb 62f 73f
12:54am 15 16 mph 1020.7mb 62f 73f
12:48am 15 17 mph 1020.6mb 62f 73f
12:42am 14 17 mph 1020.6mb 62f 73f
12:36am 15 16 mph 1020.6mb 62f 73f
12:30am 14 16 mph 1020.7mb 62f 73f
12:24am 14 16 mph 1020.7mb 63f 73f
12:18am 15 16 mph 1020.6mb 63f 73f
12:12am 15 17 mph 1020.6mb 63f 73f
12:06am 16
mph
1020.6mb 63f 73f
12:00am 14 16 mph 1020.6mb 64f 74f
Wed 05/25 11:54pm 14 15 mph 1020.5mb 64f 74f
11:48pm  -  mph 1020.5mb 64f 74f
11:42pm  -  mph 1020.5mb 64f 74f
11:36pm  -  mph 1020.5mb 65f 74f
11:30pm 10 13 mph 1020.5mb 64f 74f
11:24pm 10 13 mph 1020.5mb 65f 74f
11:18pm  -  mph 1020.6mb 65f 74f
11:12pm  -  mph 1020.5mb 64f 73f
11:06pm  -  mph 1020.5mb 64f 73f
11:00pm  -  mph - 65f 72f
10:54pm  -  mph - 65f 73f
10:48pm  -  mph - 65f 73f
10:42pm  -  mph - 65f 73f
10:36pm  -  mph - 65f 73f
10:30pm 6 7 mph 1020.7mb 65f -
10:24pm 7 8 mph 1020.7mb 65f -
10:06pm  -  mph 1020.7mb 65f 74f
10:00pm 7
mph
1020.7mb 65f -
9:54pm 6 7 mph 1020.6mb 65f -
9:48pm 6 7 mph 1020.6mb 65f -
9:42pm  -  mph 1020.6mb 65f -
9:36pm  -  mph 1020.5mb 65f -
9:30pm 6
mph
1020.4mb 65f -
9:24pm 6 7 mph 1020.4mb 65f -
9:12pm 5 6 mph 1020.2mb 65f -
9:06pm 6
mph
1020.2mb 65f -
9:00pm  -  mph 1020.1mb 65f -
8:54pm  -  mph 1020mb 65f -
8:48pm  -  mph 1020mb 65f -
8:42pm  -  mph 1019.9mb 65f -
8:36pm  -  mph 1019.9mb 65f -
8:30pm 8
mph
1020mb 65f -
8:24pm 6 7 mph 1020mb 65f -
8:18pm  -  mph 1019.8mb 65f 73f
8:12pm  -  mph 1019.8mb 65f 73f
8:06pm  -  mph 1019.8mb 65f 73f
8:00pm 6 7 mph 1019.8mb 65f -
7:54pm 5 8 mph 1019.8mb 65f -
7:48pm 6 8 mph - 65f -
7:42pm 3 6 mph - 65f -
7:36pm 3 6 mph - 65f -
7:30pm 5 8 mph 1019.9mb 65f -
7:24pm 6 10 mph 1020mb 65f -
7:18pm  -  mph 1020mb 65f 74f
7:12pm  -  mph 1020mb 65f 75f
7:06pm  -  mph 1020.1mb 65f 74f
7:00pm  -  mph 1020.1mb 65f -
6:54pm  -  mph 1020.1mb 65f -
6:48pm 7 10 mph 1020.1mb - -
6:42pm 8 11 mph 1020.1mb - -
6:36pm 8 10 mph 1020.2mb - -
6:30pm 7 10 mph 1020.1mb - -
6:24pm 6 9 mph 1020.2mb - -
6:18pm 6 8 mph 1020.3mb - -
6:12pm 6 10 mph 1020.4mb 65f 76f
6:06pm 6 10 mph 1020.4mb 65f 76f
6:00pm 7 9 mph 1020.4mb 65f -
5:54pm 6 9 mph 1020.5mb 65f -
5:48pm  -  mph 1020.5mb - -
5:42pm  -  mph 1020.4mb - -
5:36pm  -  mph 1020.5mb - -
5:30pm 9 13 mph 1020.4mb 65f 73f
5:24pm 8 13 mph 1020.4mb 65f 73f
5:18pm 8 13 mph 1020.4mb 65f 73f
5:12pm 10 14 mph 1020.4mb 65f 73f
5:06pm 7 14 mph 1020.5mb 65f 73f
5:00pm 11 14 mph 1020.5mb 65f 73f
4:54pm 9 13 mph 1020.5mb 65f 73f
4:48pm 9 13 mph 1020.6mb 64f 72f
4:42pm 11 13 mph 1020.5mb 65f 73f
4:36pm 11 13 mph 1020.5mb 65f 74f
4:30pm 10 11 mph 1020.4mb 65f 73f
4:24pm 9 11 mph 1020.4mb 65f 73f
4:18pm 11 13 mph 1020.5mb 65f 74f
4:12pm 9 11 mph 1020.6mb 65f 74f
4:06pm 10 13 mph 1020.6mb 65f 74f
4:00pm 10 11 mph 1020.7mb 65f 73f
3:54pm 8 9 mph 1020.8mb 65f 73f
3:48pm 8 10 mph 1020.7mb 66f 75f
3:42pm 8
mph
1020.8mb 66f 73f
3:36pm 9 10 mph 1020.9mb 65f 74f
3:30pm 10
mph
1020.9mb 65f 74f
3:24pm 10 11 mph 1021mb 65f 73f
3:18pm 10
mph
1021.1mb 65f 73f
3:12pm 8 9 mph 1021.1mb 66f 73f
3:06pm 8
mph
1021.2mb 65f 74f
3:00pm 8
mph
1021.1mb 66f 75f
2:54pm 7 8 mph 1021.2mb 66f 76f
2:48pm 7
mph
1021.2mb 65f 76f
2:42pm 7
mph
1021.2mb 64f 74f
2:36pm 7
mph
1021.2mb 64f 74f
2:30pm 6 7 mph 1021.3mb 64f 75f
2:24pm 6
mph
1021.3mb 64f 74f
2:18pm 6 11 mph 1021.4mb 64f 74f
2:12pm 6
mph
1021.4mb 64f 74f
2:06pm 6
mph
1021.3mb 65f 75f
2:00pm 6
mph
1021.3mb 65f 74f
1:54pm 6
mph
1021.4mb 65f 74f
1:48pm 6
mph
1021.4mb 65f 74f
1:42pm 6
mph
1021.4mb 65f 74f
1:36pm 6
mph
1021.4mb 65f 74f
1:30pm 5
mph
1021.4mb 65f 75f
1:24pm 3 5 mph 1021.4mb 65f 74f
1:18pm 3
mph
1021.4mb 65f 76f
1:12pm 3 5 mph 1021.4mb 65f 75f
1:06pm 3
mph
1021.5mb 65f 75f
1:00pm 2 3 mph 1021.6mb 65f 76f
12:54pm 3
mph
1021.6mb 65f 76f
12:48pm 2 5 mph 1021.6mb 65f 77f
12:42pm 3 5 mph 1021.7mb 65f 76f
12:36pm 3
mph
1021.8mb 65f 76f
12:30pm 2 5 mph 1021.8mb 65f 76f
12:24pm 5
mph
1021.8mb 65f 75f
12:18pm 3 5 mph 1021.8mb 65f 75f
12:12pm 5 6 mph 1021.9mb 65f 75f
12:06pm 6
mph
1021.9mb 65f 75f
12:00pm 6 7 mph 1021.9mb 65f 74f
11:54am 6
mph
1021.9mb 65f 74f
11:48am 6 7 mph 1021.9mb 65f 73f
11:42am 6 7 mph 1021.9mb 65f 73f
11:36am 6 7 mph 1021.9mb 65f 73f
11:30am 6 7 mph 1021.9mb 65f 72f
11:24am 6
mph
1021.9mb 65f 71f
11:18am 6 7 mph 1022mb 65f 70f
11:12am 6 7 mph 1022.1mb 65f 71f
11:06am 7 8 mph 1022.1mb 65f 71f
11:00am 8
mph
1022mb 65f 71f
10:54am 8 9 mph 1022mb 65f 70f
10:48am 9
mph
1022mb 65f 71f
10:42am 8
mph
1022mb 65f 70f
10:36am 8 9 mph 1022.1mb 65f 70f
10:30am 9
mph
1022mb 65f 70f
10:24am 8 9 mph 1022mb 65f 69f
10:18am 8 9 mph 1021.9mb 65f 69f
10:00am 9 10 mph 1022mb 65f 68f
9:54am 9 10 mph 1022mb 65f 68f
9:48am 9 10 mph 1022mb 65f 68f
9:42am 9 11 mph 1021.9mb 65f 68f
9:36am 10 11 mph 1022mb 65f 68f
9:30am 10 11 mph 1022mb 65f 68f
9:24am 10 11 mph 1021.9mb 65f 68f
9:18am 10 11 mph 1021.9mb 65f 68f
9:12am 10 11 mph 1021.9mb 65f 68f
9:06am 10 11 mph 1021.9mb 65f 68f
9:00am 10 11 mph 1021.8mb 65f 67f
8:54am 10 11 mph 1021.8mb 66f 67f
8:48am 10 11 mph 1021.7mb 66f 67f
8:42am 10 11 mph 1021.7mb 65f 67f
8:36am 9 10 mph 1021.7mb 66f 67f
8:30am 9 11 mph 1021.7mb 66f 67f
8:24am 10 11 mph 1021.7mb 66f 67f
8:18am 10 11 mph 1021.6mb 66f 67f
8:12am 11 13 mph 1021.6mb 66f 67f
8:06am 11
mph
1021.7mb 66f 67f
8:00am 10 11 mph 1021.5mb 66f 67f
7:54am 10 11 mph 1021.4mb 66f 67f
7:48am 10 11 mph 1021.4mb 66f 67f
7:42am 10 11 mph 1021.3mb 66f 67f
7:36am 10 11 mph 1021.2mb 66f 67f
7:30am 10 11 mph 1021.1mb 66f 67f
7:24am 11 13 mph 1021.1mb 66f 67f
7:18am 11 13 mph 1021mb 65f 67f
7:12am 11 13 mph 1020.9mb 65f 67f
7:06am 11 13 mph 1020.8mb 65f 67f
7:00am 10 13 mph 1020.7mb 65f 67f
6:54am 10 13 mph 1020.7mb 66f 67f
6:48am 11 13 mph 1020.6mb 65f 67f
6:42am 11 13 mph 1020.5mb 65f 67f
6:36am 11 14 mph 1020.6mb 65f 67f
6:30am 11 13 mph 1020.5mb 65f 67f
6:24am 11 14 mph 1020.4mb 65f 67f
6:18am 13 14 mph 1020.4mb 65f 68f
6:12am 11 13 mph 1020.3mb 65f 68f
6:06am 11 13 mph 1020.2mb 65f 68f
6:00am 10 11 mph 1020.2mb 65f 68f
5:54am 10 11 mph 1020.1mb 65f 67f
5:48am 11
mph
1020.1mb 65f 67f
5:42am 11
mph
1020mb 65f 67f
5:36am 13
mph
1020mb 65f 67f
5:30am 11 13 mph 1019.9mb 65f 67f
5:24am 13 14 mph 1020mb 65f 67f
5:18am 14
mph
1019.9mb 65f 67f
5:12am 14
mph
1019.9mb 65f 68f
5:06am 14
mph
1020mb 65f 68f
5:00am 14
mph
1020mb 65f 68f
4:54am 13 14 mph 1019.9mb 65f 67f
4:48am 14
mph
1020mb 65f 67f
4:42am 14
mph
1020mb 65f 68f
4:36am 14
mph
1020mb 65f 68f
4:30am 13 14 mph 1020mb 65f 68f
4:24am 13
mph
1019.9mb 65f 68f
4:18am 13
mph
1019.8mb 65f 68f
4:12am 13 14 mph 1019.7mb 65f 68f
4:06am 13 14 mph 1019.7mb 65f 69f
4:00am 13 14 mph 1019.7mb 65f 68f
3:54am 14
mph
1019.7mb 65f 69f
3:48am 14 15 mph 1019.7mb 65f 69f
3:42am 14 15 mph 1019.7mb 65f 69f
3:36am 14 15 mph 1019.6mb 65f 69f
3:30am 14 15 mph 1019.6mb 64f 68f
3:24am 15 16 mph 1019.5mb 64f 68f
3:12am 15 16 mph 1019.4mb 64f 69f
3:06am 15 16 mph 1019.4mb 64f 69f
3:00am 15 16 mph 1019.3mb 64f 69f
2:54am 14 15 mph 1019.2mb 64f 69f
2:48am 14 16 mph 1019.3mb 64f 69f
2:42am 15 16 mph 1019.3mb 63f 69f
2:36am 15 16 mph 1019.2mb 62f 69f
2:30am 15 17 mph 1019.1mb 62f 70f
2:18am 15 16 mph 1019mb 62f 70f
2:12am 14 15 mph 1019mb 62f 70f
2:06am 13 14 mph 1019mb 62f 69f
2:00am 13 14 mph 1018.9mb 62f 70f
1:54am 14
mph
1018.8mb 62f 70f
1:48am 14
mph
1018.8mb 62f 70f
1:42am 14
mph
1018.8mb 62f 70f
1:36am 14
mph
1018.9mb 62f 71f
1:30am 14
mph
1019mb 62f 71f
1:24am 14
mph
1019mb 62f 71f
1:18am 13 14 mph 1019mb 62f 71f
1:12am 13 14 mph 1019mb 62f 71f
1:06am 13 14 mph 1019mb 63f 71f
1:00am 13 14 mph 1019.1mb 63f 71f
12:48am 11
mph
1019.1mb 63f 71f
12:42am 10
mph
1019.1mb 63f 71f
12:36am 10
mph
1019.1mb 63f 71f
12:30am 10
mph
1019.1mb 64f 71f
12:24am 10
mph
1019mb 64f 71f
12:18am 10
mph
1019mb 64f 71f
12:12am 10
mph
1019mb 64f 71f
12:06am 9
mph
1018.9mb 64f 71f
12:00am 9 10 mph 1019mb 64f 71f
Tue 05/24 11:54pm 9
mph
1018.9mb 64f 71f
11:48pm  -  mph 1018.9mb 64f 71f
11:42pm  -  mph 1019mb 64f 71f
11:36pm  -  mph 1018.9mb 64f 71f
11:30pm 8
mph
1019mb 64f 71f
11:24pm 8 9 mph 1018.9mb 64f 71f
11:18pm  -  mph 1018.8mb 64f 71f
11:12pm  -  mph 1018.8mb 64f 71f
11:00pm 8
mph
1018.9mb 65f 73f
10:54pm 8
mph
1018.9mb 64f 74f
10:48pm 8 9 mph - - -
10:42pm 9 10 mph - - -
10:36pm 9 10 mph - - -
10:30pm 10
mph
- 65f -
10:24pm 10 11 mph - 64f -
10:18pm 10 11 mph - 64f -
10:12pm  -  mph 1018.6mb 64f 72f
10:06pm  -  mph 1018.6mb 64f 72f
10:00pm  -  mph 1018.5mb 65f 73f
9:54pm  -  mph 1018.4mb 65f 73f
9:48pm  -  mph 1018.4mb - -
9:42pm  -  mph 1018.2mb - -
9:36pm  -  mph 1018.1mb - -
9:30pm 8 10 mph 1017.9mb 65f -
9:24pm 7 8 mph 1017.9mb 65f -
9:18pm 7
mph
1017.9mb 66f -
9:12pm  -  mph 1017.7mb 66f 75f
9:06pm  -  mph 1017.7mb 66f 76f
8:54pm  -  mph 1017.5mb 66f -
8:48pm  -  mph 1017.5mb - -
8:42pm  -  mph 1017.4mb - -
8:36pm  -  mph 1017.4mb - -
8:30pm 3 5 mph 1017.3mb - 73f
8:24pm 3
mph
1017.3mb - 73f
8:18pm 2
mph
1017.2mb - 76f
8:12pm  -  mph 1017.2mb 66f 74f
8:06pm  -  mph 1017.2mb 66f 75f
8:00pm  -  mph 1017.1mb - 75f
7:54pm  -  mph 1017.1mb - 75f
7:48pm  -  mph - 65f -
7:42pm  -  mph - 65f -
7:36pm  -  1 mph - 65f -
7:30pm  -  mph 1017mb 65f -
7:24pm  -  mph 1017mb 65f -
7:18pm  -  mph 1017mb 65f -
7:12pm  -  mph 1016.9mb 66f 75f
7:06pm  -  mph 1016.9mb 66f 77f
7:00pm  -  mph 1016.8mb 65f 77f
6:54pm  -  mph 1016.9mb 65f 77f
6:48pm  -  mph 1016.8mb 65f 78f
6:42pm  -  mph 1016.9mb 65f 77f
6:36pm  -  mph 1016.9mb 65f 79f
6:30pm  -  mph 1016.8mb 66f 78f
6:24pm 7 8 mph 1016.8mb 66f -
6:18pm 6 7 mph 1016.7mb 66f -
6:12pm 6 7 mph 1016.7mb 66f -
6:06pm 7
mph
1016.7mb 66f -
6:00pm  -  mph - - 78f
5:54pm  -  mph - - 77f
5:48pm  -  mph 1016.5mb 66f 77f
5:42pm  -  mph 1016.5mb 66f 75f
5:36pm  -  mph 1016.5mb 66f 75f
5:30pm 7 8 mph 1016.4mb 66f 76f
5:24pm 7 9 mph 1016.5mb 66f 75f
5:18pm 9 10 mph 1016.5mb 66f 75f
5:12pm 9 10 mph 1016.4mb 66f 76f
5:06pm 9 11 mph 1016.4mb 66f 75f
4:54pm 10 11 mph 1016.4mb 66f 77f
4:48pm 10 11 mph 1016.4mb 66f 78f
4:42pm 10 11 mph 1016.4mb 65f 76f
4:36pm 10 13 mph 1016.3mb 65f 78f
4:30pm 11
mph
1016.3mb 65f 76f
4:24pm 11 13 mph 1016.3mb 65f 75f
4:18pm 11
mph
1016.3mb 65f 76f
4:12pm 11 14 mph 1016.4mb 65f 75f
4:06pm 13 14 mph 1016.3mb 65f 76f
4:00pm 13 14 mph 1016.3mb 65f 77f
3:54pm 14
mph
1016.3mb 65f 77f
3:48pm 13 14 mph 1016.4mb 65f 74f
3:42pm 14 15 mph 1016.4mb 65f 75f
3:36pm 14 15 mph 1016.4mb 65f 75f
3:30pm 13 14 mph 1016.4mb 65f 75f
3:24pm 14 15 mph 1016.5mb 65f 74f
3:18pm 11 13 mph 1016.4mb 65f 74f
3:12pm 11 14 mph 1016.4mb 65f 75f
3:06pm 14
mph
1016.5mb 65f 74f
3:00pm 14 15 mph 1016.5mb 65f 73f
2:54pm 15 16 mph 1016.5mb 65f 73f
2:48pm 14 16 mph 1016.6mb 65f 73f
2:42pm 15 16 mph 1016.6mb 65f 73f
2:36pm 13 14 mph 1016.6mb 65f 72f
2:30pm 14 15 mph 1016.7mb 65f 72f
2:24pm 14 15 mph 1016.7mb 65f 72f
2:18pm 13 14 mph 1016.8mb 65f 71f
2:12pm 14
mph
1016.8mb 65f 72f
2:06pm 14
mph
1016.8mb 65f 71f
2:00pm 13 14 mph 1016.7mb 65f 73f
1:54pm 10 13 mph 1016.7mb 65f 70f
1:48pm 13
mph
1016.8mb 65f 71f
1:42pm 11
mph
1016.8mb 65f 71f
1:36pm 10 13 mph 1016.9mb 64f 70f
1:30pm 11 13 mph 1016.9mb 64f 70f
1:24pm 11 13 mph 1017mb 64f 70f
1:18pm 10 13 mph 1017mb 64f 69f
1:12pm 11 13 mph 1016.9mb 64f 70f
1:06pm 11 13 mph 1017mb 64f 70f
11:12am 15 16 mph 1016.6mb 63f 65f
11:06am 14 15 mph 1016.6mb 63f 65f
11:00am 15 16 mph 1016.7mb 63f 65f
10:54am 15
mph
1016.7mb 63f 65f
10:48am 14 16 mph 1016.7mb 63f 64f
10:42am 14 15 mph 1016.7mb 63f 64f
10:36am 13 14 mph 1016.8mb 63f 64f
10:30am 13 14 mph 1016.8mb 63f 64f
10:24am 14 15 mph 1016.8mb 63f 64f
10:18am 10 13 mph 1016.8mb 63f 64f
10:12am 11 13 mph 1016.8mb 63f 64f
10:06am 9 10 mph 1016.7mb 63f 64f
10:00am 9 10 mph 1016.6mb 63f 64f
9:54am 9 10 mph 1016.6mb 63f 64f
9:48am 10 11 mph - 64f 63f
9:42am 11 14 mph - 64f 63f
9:36am 13 14 mph - 64f 63f
9:30am 13 14 mph 1016.5mb 64f 63f
9:24am 13
mph
1016.5mb 64f 63f
9:18am 10 11 mph 1016.5mb 64f 62f
9:12am 10 13 mph 1016.6mb 64f 62f
9:06am 11 13 mph 1016.6mb 63f 62f
9:00am 13 14 mph 1016.5mb 63f 61f
8:54am 11 14 mph 1016.4mb 63f 61f
8:48am 11 14 mph 1016.4mb 63f 61f
8:42am 13 14 mph 1016.4mb 63f 61f
8:36am 13 15 mph 1016.3mb 63f 61f
8:30am 14 15 mph 1016.1mb 64f 60f
8:24am 14 15 mph 1016mb 64f 60f
8:18am 15 16 mph 1016mb 64f 60f
8:12am 15 17 mph 1015.9mb 64f 60f
8:06am 14 16 mph 1015.9mb 64f 60f
8:00am 15 16 mph 1015.8mb 64f 60f
7:54am 14 15 mph 1015.8mb 64f 60f
7:48am 13 15 mph 1015.7mb 64f 60f
7:42am 14 16 mph 1015.6mb 64f 60f
7:36am 14 15 mph 1015.5mb 64f 60f
7:30am 13 14 mph 1015.6mb 64f 60f
7:24am 13 14 mph 1015.6mb 64f 60f
7:18am 11 14 mph 1015.6mb 64f 60f
7:12am 13 15 mph 1015.7mb 64f 60f
7:06am 13 15 mph 1015.7mb 64f 60f
7:00am 13 15 mph 1015.7mb 64f 60f
6:54am 13 14 mph 1015.5mb 64f 61f
6:48am 10 11 mph 1015.4mb 64f 61f
6:42am 10
mph
1015.4mb 64f 61f
6:36am 10
mph
1015.3mb 64f 61f
6:30am 10 11 mph 1015.1mb 64f 61f
6:24am 10 11 mph 1015.1mb 64f 61f
6:18am 10
mph
1015mb 64f 61f
6:12am 9 11 mph 1014.9mb 64f 61f
6:06am 10 11 mph 1014.9mb 64f 62f
6:00am 11
mph
1014.9mb 64f 62f
5:54am 10 11 mph 1014.9mb 64f 62f
5:48am 9 10 mph 1014.9mb 63f 63f
5:42am 9 10 mph 1014.9mb 63f 63f
5:36am 8 10 mph 1014.8mb 63f 62f
5:30am 9 10 mph 1014.7mb 63f 62f
5:24am 10 11 mph 1014.7mb 63f 62f
5:18am 10 11 mph 1014.6mb 63f 62f
5:12am 9 10 mph 1014.6mb 63f 62f
5:06am 8
mph
1014.5mb 63f 62f
5:00am 7 8 mph 1014.5mb 63f 62f
4:54am 7
mph
1014.5mb 63f 62f
4:48am 6 7 mph 1014.5mb 63f 62f
4:42am 6 8 mph 1014.5mb 63f 62f
4:36am 7 8 mph 1014.6mb 63f 62f
4:30am 8 9 mph 1014.6mb 63f 62f
4:24am 8 10 mph 1014.5mb 63f 62f
4:18am 9 10 mph 1014.6mb 63f 62f
4:12am 9 10 mph 1014.5mb 63f 62f
4:06am 10 11 mph 1014.5mb 63f 62f
4:00am 10 13 mph 1014.4mb 63f 62f
3:54am 13
mph
1014.4mb 63f 62f
3:48am 11 13 mph 1014.3mb 63f 62f
3:42am 11 13 mph 1014.2mb 63f 62f
3:36am 11 13 mph 1014.2mb 63f 62f
3:30am 11 13 mph 1014.2mb 63f 62f
3:24am 13 14 mph 1014.2mb 63f 62f
3:18am 11 14 mph 1014.1mb 63f 62f
3:12am 13 15 mph 1014mb 63f 62f
3:06am 14 16 mph 1014mb 63f 62f
3:00am 15 17 mph 1014mb 63f 62f
2:54am 15 17 mph 1014.1mb 62f 62f
2:48am 15 16 mph 1014.2mb 62f 62f
2:42am 14 15 mph 1014.1mb 61f 62f
2:36am 13 15 mph 1014.1mb 61f 62f
2:30am 14 15 mph 1014mb 61f 62f
2:24am 14 15 mph 1013.9mb 61f 62f
2:18am 14 15 mph 1013.9mb 61f 62f
2:12am 14 15 mph 1013.9mb 61f 62f
2:06am 15 16 mph 1013.9mb 61f 63f
2:00am 15 16 mph 1013.9mb 61f 63f
1:54am 14 16 mph 1013.8mb 61f 62f
1:48am  -  mph 1013.9mb 61f 62f
1:42am  -  mph 1013.9mb 61f 62f
1:36am  -  mph 1014mb 61f 62f
1:30am 14 16 mph 1014mb 61f 62f
1:24am 14 16 mph 1014.1mb 61f 62f
1:18am 13 15 mph 1014.2mb 61f 62f
1:12am 11 13 mph 1014.2mb 61f 62f
1:06am 10 13 mph 1014.3mb 61f 62f
1:00am 10 11 mph 1014.3mb 61f 62f
12:54am 9 10 mph 1014.2mb 61f 62f
12:48am 9 10 mph 1014.3mb 61f 62f
12:42am 9 10 mph 1014.3mb 61f 61f
12:36am 9
mph
1014.2mb 61f 61f
12:30am 7 8 mph 1014.3mb 61f 61f
12:24am 8
mph
1014.4mb 61f 60f
12:18am 7 9 mph 1014.5mb 61f 60f
12:12am 8
mph
1014.5mb 61f 60f
12:06am 7
mph
1014.4mb 61f 60f
12:00am 7 8 mph 1014.4mb 61f 60f
Mon 05/23 11:54pm 7 8 mph 1014.4mb 61f 60f
11:48pm 7 8 mph 1014.3mb 61f 60f
11:42pm 7 8 mph 1014.2mb 61f 60f
11:36pm 7 8 mph 1014.1mb 61f 60f
11:30pm 7 9 mph 1014.1mb 61f 60f
11:24pm 7
mph
1014.2mb 61f 60f
11:18pm 5 6 mph 1014.4mb 62f 60f
11:12pm  -  mph 1014.5mb 62f 60f
11:06pm  -  mph 1014.4mb 62f 60f
11:00pm  -  mph - 62f -
10:54pm  -  mph - 62f -
10:48pm  -  mph 1014.4mb 63f -
10:42pm  -  mph 1014.4mb 63f -
10:36pm  -  mph 1014.4mb 63f -
10:30pm 6 7 mph 1014.4mb 63f 60f
10:24pm 5 6 mph 1014.5mb 63f 61f
10:18pm 3 5 mph 1014.5mb 63f -
10:12pm 2 5 mph 1014.5mb 63f -
10:06pm 3 5 mph 1014.4mb 63f -
10:00pm 3 5 mph 1014.4mb 63f 61f
9:54pm 1 3 mph 1014.5mb 63f 61f
9:48pm 2 3 mph - 63f -
9:42pm 2 3 mph - 63f -
9:36pm 3
mph
- 63f -
9:30pm  -  mph - 63f -
9:24pm  -  mph - 63f -
9:18pm  -  mph - 64f -
9:12pm  -  mph - 64f -
9:06pm  -  mph - 64f -
9:00pm  -  mph - 64f 62f
8:54pm  -  mph - 64f 61f
8:48pm  -  1 mph 1013.7mb - -
8:42pm  -  1 mph 1013.7mb - -
8:36pm  -  mph 1013.6mb - -
8:30pm  -  mph 1013.5mb 64f -
8:24pm  -  mph 1013.5mb 64f -
8:18pm  -  1 mph - 64f -
8:12pm 2
mph
- 64f -
8:06pm 2 5 mph - 64f -
8:00pm 5 6 mph 1013.5mb 64f 61f
7:54pm 3 7 mph 1013.5mb 64f 61f
7:48pm  -  mph 1013.5mb - -
7:42pm  -  mph 1013.4mb - -
7:36pm  -  mph 1013.2mb - -
7:30pm  -  mph - 64f -
7:24pm  -  mph - 64f -
7:18pm  -  mph 1013mb 64f -
7:12pm  -  mph 1013mb 64f -
7:06pm  -  mph 1012.8mb 64f -
7:00pm  -  mph 1012.9mb 64f -
6:54pm  -  mph 1012.9mb 64f -
6:48pm  -  mph - 64f -
6:42pm  -  mph - 64f -
6:36pm  -  mph - 64f -
6:30pm 3 5 mph 1012.7mb 64f 62f
6:24pm 5 6 mph 1012.6mb 64f 62f
6:18pm  -  mph 1012.6mb 64f -
6:12pm  -  mph 1012.7mb 64f -
6:06pm  -  mph 1012.6mb 64f -
6:00pm  -  mph 1012.6mb 63f 62f
5:54pm  -  mph 1012.6mb 63f 62f
5:48pm  -  mph 1012.4mb - -
5:42pm  -  mph 1012.4mb - -
5:36pm  -  mph 1012.4mb - -
5:30pm 8 9 mph 1012.4mb 63f 62f
5:24pm 8 11 mph 1012.5mb 63f 62f
5:18pm 9 14 mph 1012.5mb 63f 62f
5:12pm 13 16 mph 1012.5mb 63f 62f
5:06pm 15 20 mph 1012.4mb 63f 62f
5:00pm 17 21 mph 1012.4mb 64f 63f
4:54pm 20 22 mph 1012.4mb 64f 63f
4:48pm 20 21 mph 1012.5mb 63f 63f
4:42pm 16 18 mph 1012.6mb 63f 63f
4:36pm 6 11 mph 1012.7mb 63f 60f
4:30pm 8 11 mph 1012.6mb 63f 60f
4:24pm 6 14 mph 1012.6mb 64f 61f
4:18pm 8 14 mph 1012.6mb 63f 61f
4:12pm 6
mph
1012.7mb 64f 60f
4:06pm 6 9 mph 1012.7mb 64f 60f
4:00pm 9 10 mph 1012.8mb 64f 59f
3:54pm 9 14 mph 1012.8mb 64f 59f
3:48pm 15 22 mph 1012.8mb 64f 59f
3:42pm 18 24 mph 1012.7mb 64f 61f
3:36pm 14 20 mph 1012.7mb 64f 61f
3:30pm 21 24 mph 1012.8mb 64f 61f
1:12pm 17 20 mph 1011.7mb 63f 61f
1:06pm 18 21 mph 1011.6mb 63f 61f
1:00pm 15 20 mph 1011.7mb 63f 61f
12:54pm 15 18 mph 1011.7mb 63f 61f
12:48pm 16 20 mph 1011.7mb 63f 61f
12:42pm 15 17 mph 1011.7mb 63f 61f
12:36pm 14 16 mph 1011.7mb 63f 61f
12:30pm 14 17 mph 1011.7mb 63f 60f
12:24pm 15 18 mph 1011.8mb 63f 60f
12:18pm 17 21 mph 1011.7mb 63f 60f
12:12pm 17 21 mph 1011.7mb 63f 60f
12:06pm 20 23 mph 1011.7mb 63f 60f
12:00pm 22 26 mph 1011.7mb 63f 60f
11:54am 24 28 mph 1011.6mb 63f 60f
11:48am 23 26 mph 1011.6mb 63f 60f
11:42am 22 29 mph 1011.7mb 63f 60f
11:36am 24 29 mph 1011.5mb 63f 60f
11:30am 25 30 mph 1011.6mb 63f 60f
11:24am 24 29 mph 1011.4mb 63f 60f
11:18am 24 30 mph 1011.4mb 63f 60f
11:12am 29 32 mph 1011.4mb 63f 60f
11:06am 28 31 mph 1011.5mb 63f 59f
11:00am 30 33 mph 1011.5mb 63f 59f
10:54am 29 32 mph 1011.6mb 63f 59f
10:48am 26 32 mph 1011.6mb 63f 59f
10:42am 30 33 mph 1011.6mb 63f 59f
10:36am 26 31 mph 1011.6mb 63f 59f
10:30am 28 32 mph 1011.6mb 63f 59f
10:24am 28 30 mph 1011.7mb 63f 59f
10:18am 28 33 mph 1011.6mb 63f 58f
10:12am 29 34 mph 1011.5mb 63f 57f
10:06am 29 37 mph 1011.5mb 63f 57f
10:00am 31 36 mph 1011.4mb 63f 57f
9:54am 31 34 mph 1011.4mb 63f 57f
9:48am 32 36 mph 1011.4mb 63f 57f
9:42am 29 33 mph 1011.7mb 63f 57f
9:36am 29 32 mph 1011.8mb 63f 58f
9:30am 29 31 mph 1011.8mb 63f 58f
9:24am 28 29 mph 1011.9mb 63f 57f
9:18am 26 31 mph 1011.9mb 63f 58f
9:12am 28 30 mph 1011.8mb 63f 58f
9:06am 25 29 mph 1011.8mb 63f 58f
9:00am 28 29 mph 1011.8mb 63f 57f
8:54am 23 26 mph 1011.7mb 63f 58f
8:48am 21 23 mph 1011.7mb 63f 58f
8:42am 21 23 mph 1011.6mb 63f 58f
8:36am 17 22 mph 1011.5mb 63f 58f
8:30am 20 23 mph 1011.3mb 63f 58f
8:24am 18 23 mph 1011.3mb 63f 58f
8:18am 22 24 mph 1011.2mb 63f 58f
8:12am 16 18 mph 1011.1mb 63f 58f
8:06am 14 20 mph 1011.1mb 63f 58f
8:00am 11 15 mph 1010.9mb 63f 58f
7:54am 8 14 mph 1011mb 63f 58f
7:48am 11 16 mph 1010.9mb 63f 57f
7:42am 14 17 mph 1010.7mb 63f 58f
7:36am 14 18 mph 1010.7mb 63f 58f
7:30am 18 20 mph 1010.4mb 63f 58f
7:24am 14 16 mph 1010.4mb 63f 58f
7:18am 15 17 mph 1010.4mb 63f 58f
7:12am 14 16 mph 1010.4mb 63f 58f
7:06am 15 17 mph 1010.3mb 63f 58f
7:00am 11 14 mph 1010.3mb 63f 58f
6:54am 14 15 mph 1010.2mb 63f 58f
6:48am 14 16 mph 1010.1mb 63f 58f
6:42am 14 16 mph 1010.1mb 63f 58f
6:36am 15 18 mph 1010mb 63f 57f
6:30am 16 18 mph 1009.9mb 63f 57f
6:24am 9 11 mph 1010mb 63f 58f
6:18am 10 11 mph 1009.9mb 63f 57f
6:12am 7 9 mph 1009.8mb 63f 57f
6:06am 8
mph
1009.7mb 63f 57f
6:00am 5 6 mph 1009.7mb 63f 57f
5:54am 6 7 mph 1009.6mb 63f 57f
5:48am 5 6 mph 1009.5mb 63f 57f
5:42am 6 7 mph 1009.4mb 63f 57f
5:36am 6 7 mph 1009.4mb 63f 57f
5:30am 7
mph
1009.3mb 63f 57f
5:24am 6 7 mph 1009.3mb 63f 57f
5:18am 5 6 mph 1009.3mb 63f 57f
5:12am 6
mph
1009.3mb 63f 57f
5:06am 6 7 mph 1009.2mb 63f 57f
5:00am 6 8 mph 1009.2mb 63f 57f
4:54am 7 8 mph 1009.2mb 63f 57f
4:48am 8 10 mph 1009.2mb 63f 57f
4:42am 9 10 mph 1009.2mb 63f 57f
4:36am 8 10 mph 1009.2mb 63f 57f
4:30am 9 10 mph 1009.1mb 63f 57f
4:24am 10 11 mph 1009.1mb 63f 57f
4:18am 10 11 mph 1009.1mb 63f 57f
4:12am 8 11 mph 1009.2mb 63f 58f
4:06am 9 11 mph 1009.2mb 63f 58f
4:00am 9 11 mph 1009.2mb 63f 58f
3:54am 11 13 mph 1009.1mb 63f 57f
3:48am 10 13 mph 1009.1mb 63f 57f
3:42am 10 11 mph 1009.1mb 63f 57f
3:36am 10 13 mph 1009.2mb 63f 57f
3:30am 10 13 mph 1009.2mb 63f 57f
3:24am 11 13 mph 1009.2mb 62f 57f
3:18am 11 13 mph 1009.2mb 62f 57f
3:12am 11 14 mph 1009.3mb 62f 57f
3:06am 11 14 mph 1009.3mb 62f 57f
3:00am 13 15 mph 1009.3mb 61f 57f
2:54am 14 15 mph 1009.2mb 61f 57f
2:48am 14 15 mph 1009.3mb 60f 58f
2:42am 7 9 mph 1009.4mb 61f 58f
2:36am 3 7 mph 1009.5mb 60f 58f
2:30am 6 7 mph 1009.5mb 60f 58f
2:24am 6 8 mph 1009.6mb 61f 58f
2:18am 7 8 mph 1009.6mb 60f 58f
2:12am 6 7 mph 1009.6mb 60f 58f
2:06am 6 7 mph 1009.7mb 60f 58f
2:00am 6 7 mph 1009.7mb 60f 58f
1:54am 5 7 mph 1009.7mb 60f 58f
1:48am  -  mph 1009.8mb 60f 58f
1:42am  -  mph 1009.8mb 60f 58f
1:36am  -  mph 1009.8mb 60f 58f
1:30am 6 7 mph 1009.9mb 60f 58f
1:24am 6
mph
1009.9mb 60f 58f
1:18am 6 7 mph 1009.9mb 60f 58f
1:12am 6 7 mph 1009.9mb 60f 57f
1:06am 6 7 mph 1010mb 60f 57f
1:00am 6 7 mph 1010mb 60f 57f
12:54am 6 8 mph 1010.1mb 60f 57f
12:48am 7 8 mph 1010.1mb 60f 57f
12:42am 9
mph
1010.1mb 60f 57f
12:36am 9 10 mph 1010.1mb 60f 57f
12:30am 9
mph
1010.1mb 61f 57f
12:24am 7 8 mph 1010.1mb 60f 57f
12:18am 6 7 mph 1010.1mb 60f 58f
12:12am 7 8 mph 1010.1mb 60f 57f
12:06am 7 8 mph 1010.1mb 61f 58f
12:00am 7 8 mph 1010mb 61f 58f
Sun 05/22 11:54pm 8 14 mph 1010.1mb 60f 58f
11:48pm 14 17 mph 1010.1mb 60f 58f
11:42pm 14 15 mph 1010.1mb 60f 58f
11:36pm 15 16 mph 1010.1mb 61f 58f
11:30pm 15 17 mph 1010.2mb 61f 57f
11:24pm 16 17 mph 1010.2mb 61f 57f
11:18pm 15 17 mph 1010.3mb 61f 57f
11:12pm  -  mph 1010.3mb 61f 57f
11:06pm  -  mph 1010.3mb 61f 57f
11:00pm  -  mph 1010.4mb 61f -
10:54pm  -  mph 1010.5mb 61f -
10:48pm 11 13 mph 1010.5mb 61f -
10:42pm 10 13 mph 1010.5mb 61f -
10:36pm 9 14 mph 1010.5mb 61f -
10:30pm 11 14 mph 1010.5mb 61f -
10:24pm 11 14 mph 1010.6mb 61f -
10:18pm 11 14 mph 1010.6mb 62f -
10:12pm  -  mph 1010.6mb 62f -
10:06pm  -  mph 1010.6mb 62f -
10:00pm 13 15 mph 1010.5mb 62f 57f
9:54pm 14 15 mph 1010.5mb 62f 57f
9:48pm 14 15 mph 1010.4mb - -
9:42pm 13 15 mph 1010.4mb - -
9:36pm 14 16 mph 1010.4mb - -
9:30pm 14 15 mph 1010.4mb 63f 58f
9:24pm 14 15 mph 1010.4mb 63f 57f
9:18pm  -  mph 1010.4mb 63f 58f
9:12pm  -  mph 1010.4mb 63f 58f
9:06pm  -  mph 1010.3mb 63f 57f
9:00pm 14 16 mph 1010.3mb 63f 58f
8:54pm 15 16 mph 1010.3mb 63f 57f
8:48pm 15 16 mph 1010.3mb 63f -
8:42pm 15 17 mph 1010.2mb 63f -
8:36pm 15 16 mph 1010.2mb 63f -
8:30pm  -  mph 1010.2mb 63f -
8:24pm  -  mph 1010.2mb 63f -
8:18pm 15 17 mph - 63f -
8:12pm 15 17 mph - 63f -
8:06pm 15 18 mph - 63f -
8:00pm  -  mph 1010.1mb 63f -
7:54pm  -  mph 1010.1mb 63f -
7:48pm  -  mph 1010mb 63f -
7:42pm  -  mph 1010mb 63f -
7:36pm  -  mph 1009.9mb 63f -
7:30pm  -  mph 1009.9mb 63f -
7:24pm  -  mph 1009.9mb 63f -
7:18pm  -  mph 1009.8mb 64f 58f
7:12pm  -  mph 1009.8mb 64f 58f
7:06pm  -  mph 1009.8mb 64f 58f
7:00pm  -  mph - 64f -
6:54pm  -  mph - 64f -
6:48pm 18 21 mph - 64f -
6:42pm 18 21 mph - 64f -
6:36pm 18 21 mph - 64f -
6:30pm  -  mph - 64f -
6:24pm  -  mph - 63f -
6:18pm 16 18 mph - 63f -
6:12pm 16 18 mph - 63f -
6:06pm 15 17 mph - 63f -
6:00pm  -  mph 1009.7mb 63f -
5:54pm  -  mph 1009.6mb 63f -
5:48pm  -  mph 1009.6mb 63f -
5:42pm  -  mph 1009.6mb 63f 58f
5:36pm  -  mph 1009.5mb 63f 58f
5:30pm 15 17 mph 1009.5mb 63f 58f
5:24pm 15 16 mph 1009.5mb 63f 58f
5:18pm 14 16 mph 1009.5mb 63f 58f
5:12pm 15 18 mph 1009.5mb 63f 58f
5:06pm 17 18 mph 1009.4mb 63f 58f
5:00pm 15 16 mph 1009.4mb 63f 58f
4:54pm 15 16 mph 1009.4mb 63f 59f
4:48pm 15 16 mph 1009.3mb 63f 59f
4:42pm 14 16 mph 1009.4mb 63f 59f
4:36pm 15 16 mph 1009.3mb 63f 59f
4:30pm 14 16 mph 1009.3mb 63f 58f
4:24pm 11 14 mph 1009.3mb 63f 59f
4:18pm 13 15 mph 1009.4mb 63f 58f
4:12pm 15 16 mph 1009.4mb 63f 58f
4:06pm 14 15 mph 1009.4mb 63f 58f
4:00pm 13 14 mph 1009.4mb 63f 58f
3:54pm 14 16 mph 1009.4mb 63f 58f
3:48pm 14 17 mph 1009.5mb 63f 58f
3:42pm 14 15 mph 1009.5mb 63f 58f
3:36pm 13 15 mph 1009.6mb 63f 58f
3:30pm 14 17 mph 1009.6mb 64f 58f
3:24pm 15 16 mph 1009.7mb 64f 58f
3:18pm 14 15 mph 1009.7mb 64f 58f
3:12pm 13 14 mph 1009.8mb 64f 58f
3:06pm 13 15 mph 1009.8mb 64f 58f
3:00pm 14 16 mph 1009.9mb 64f 58f
2:54pm 13 14 mph 1009.9mb 64f 58f
2:48pm 14
mph
1010mb 64f 58f
2:42pm 13 14 mph 1010mb 64f 58f
2:36pm 13 15 mph 1010mb 64f 58f
2:30pm 14 15 mph 1010mb 64f 58f
2:24pm 14 16 mph 1010mb 64f 58f
2:18pm 14 15 mph 1010mb 64f 58f
2:12pm 13 14 mph 1010mb 64f 58f
2:06pm 13 16 mph 1009.9mb 64f 58f
2:00pm 14 16 mph 1010mb 64f 58f
1:54pm 13 15 mph 1010mb 64f 58f
1:48pm 13 14 mph 1010mb 64f 58f
1:42pm 13 15 mph 1009.9mb 64f 58f
1:36pm 13 16 mph 1009.9mb 64f 58f
1:30pm 15 16 mph 1009.8mb 64f 58f
1:24pm 14 17 mph 1009.8mb 63f 58f
1:18pm 15 17 mph 1009.8mb 63f 59f
1:12pm 15 17 mph 1009.9mb 63f 58f
1:06pm 15 17 mph 1010mb 63f 58f
1:00pm 15 17 mph 1009.9mb 63f 59f
12:54pm 14 18 mph 1009.9mb 63f 58f
12:48pm 15 20 mph 1009.9mb 63f 59f
12:42pm 16 18 mph 1009.9mb 63f 59f
12:36pm 15 20 mph 1009.9mb 63f 59f
12:30pm 16 18 mph 1009.9mb 63f 59f
12:24pm 16 18 mph 1010mb 63f 59f
12:18pm 15 18 mph 1009.9mb 63f 59f
12:12pm 15 18 mph 1010mb 63f 60f
12:06pm 16 18 mph 1010mb 63f 59f
12:00pm 15 22 mph 1010mb 63f 59f
11:54am 21 22 mph 1010mb 63f 59f
11:48am 18 22 mph 1009.9mb 63f 59f
11:42am 17 20 mph 1009.9mb 63f 59f
11:36am 17 20 mph 1009.9mb 63f 59f
11:30am 18 21 mph 1009.9mb 63f 59f
11:24am 18 20 mph 1010mb 63f 59f
11:18am 17 20 mph 1009.9mb 63f 59f
11:12am 16 20 mph 1009.9mb 63f 59f
11:06am 17 20 mph 1010mb 63f 59f
11:00am 16 20 mph 1009.9mb 63f 59f